Flag for China Weather past 2 weeks in Guiyang, Guizhou, China

Now
48 °F

Fog.


Feels Like: 48 °F
Forecast: 38 / 49 °F
Wind: 1 mph from North

Location: Guiyang Airport

Current Time: Dec 20, 2014 at 12:36:04 PM

Latest Report: Dec 20, 2014 at 12:00 PM


Visibility: 2 mi

Pressure: 30.12 "Hg

Humidity: 82%

Dew point: 43 °F

Location of GuiyangLocation

Historic Weather in Guiyang — Graph

°F

Guiyang temperature yesterday

Maximum temperature yesterday: 50 °F (at 4:00 PM)
Minimum temperature yesterday: 32 °F (at 10:00 PM)
Average temperature yesterday: 38 °F

Past Weeks' High & Low Weather Summary

 TemperatureHumidityPressure
High55 °F (Dec 8, 2:00 PM)100% (Dec 7, 3:00 AM)30.60 "Hg (Dec 7, 3:00 AM)
Low30 °F (Dec 20, 12:00 AM)49% (Dec 13, 2:00 PM)30.04 "Hg (Dec 6, 3:00 PM)
Average41 °F78%30.29 "Hg
* Reported Dec 5 11:00 AM — Dec 20 11:00 AM, Guiyang, Weather by CustomWeather, © 2014

Note: Actual official high and low records may vary slightly from our data, if they occured in-between our weather recording intervals... More about our weather records

Advertising

Guiyang weather history for previous 24 hours

 ConditionsComfort  
Time TempWeatherWind HumidityBarometerVisibility
11:00 AM
Dec 20
37 °FFog.1 mph100%30.18 "Hg1 mi
10:00 AM32 °FFog.1 mph100%30.21 "Hg0 mi
9:00 AM30 °FIce fog.1 mph100%30.18 "Hg0 mi
8:00 AM30 °FIce fog.1 mph100%30.18 "Hg0 mi
7:00 AM30 °FIce fog.1 mph100%30.15 "Hg0 mi
6:00 AM30 °FIce fog.1 mph100%30.15 "Hg0 mi
5:00 AM30 °FIce fog.No wind100%30.18 "Hg0 mi
4:00 AM30 °FIce fog.1 mph100%30.18 "Hg0 mi
3:00 AM32 °FIce fog.1 mph100%30.21 "Hg0 mi
2:00 AM32 °FIce fog.1 mph93%30.21 "Hg0 mi
1:00 AM30 °FIce fog.1 mph93%30.21 "Hg0 mi
12:00 AM30 °FIce fog.1 mph100%30.24 "Hg1 mi
11:00 PM
Dec 19
32 °FIce fog.3 mph93%30.27 "Hg2 mi
10:00 PM32 °FIce fog.1 mph100%30.24 "Hg2 mi
9:00 PM34 °FFog.3 mph93%30.24 "Hg3 mi
8:00 PM36 °FFog.3 mph93%30.24 "Hg3 mi
7:00 PM37 °FClear.1 mph87%30.21 "Hg10 mi
6:00 PM43 °FSunny.1 mph71%30.21 "Hg10 mi
5:00 PM50 °FSunny.1 mph58%30.21 "Hg10 mi
4:00 PM50 °FClear.1 mph58%30.21 "Hg4 mi
3:00 PM48 °FClear.1 mph66%30.24 "Hg4 mi
2:00 PM46 °FFog.3 mph71%30.27 "Hg3 mi
1:00 PM41 °FMostly cloudy.3 mph81%30.33 "Hg4 mi
12:00 PM39 °FMostly cloudy.1 mph75%30.36 "Hg4 mi
Weather by CustomWeather, © 2014

See weather overviewHow to use our weather pages